Tracking 30107 objects as of 18-Jan-2025
HD Live streaming from Space Station
objects crossing your sky now

STARLINK-5908

Track STARLINK-5908 now!
10-day predictions
STARLINK-5908 is classified as:


NORAD ID: 55951
Int'l Code: 2023-037AP
Perigee: 577.2 km
Apogee: 581.2 km
Inclination: 70.0 °
Period: 96.1 minutes
Semi major axis: 6950 km
RCS: Unknown
Launch date: March 17, 2023
Source: United States (US)
Launch site: AIR FORCE WESTERN TEST RANGE (AFWTR)
Your satellite tracking list
Your tracking list is empty




NASA's NSSDC Master Catalog

Two Line Element Set (TLE):
1 55951U 23037AP  25018.36876515  .00000097  00000-0  15913-4 0  9996
2 55951  69.9983 251.4409 0002842 268.9600  91.1234 14.98330802101777
Source of the keplerian elements: AFSPC